Location: Luxembourg
(49.6117°N, 6.1300°E)
Time: 16:10:09
(UTC+01:00)

Tiangong 2 - Visible Passes

Search period start: 20 November 2017 00:00
Search period end: 30 November 2017 00:00
Orbit: 386 x 391 km, 42.8° (Epoch: 20 November)

Date Brightness Start Highest point End Pass type
(mag) Time Alt. Az. Time Alt. Az. Time Alt. Az.
27 Nov 4.3 06:50:44 10° S 06:51:37 11° SSE 06:52:31 10° SE visible
28 Nov 3.7 07:27:21 10° SW 07:29:42 19° SSE 07:32:04 10° ESE visible
29 Nov 3.9 06:29:44 10° SSW 06:31:41 15° SSE 06:33:38 10° ESE visible
